Time,TemperatureF,DewpointF,PressureIn,WindDirection,WindDirectionDegrees,WindSpeedMPH,WindSpeedGustMPH,Humidity,HourlyPrecipIn,Conditions,Clouds,dailyrainin,SolarRadiationWatts/m^2,SoftwareType,DateUTC
2013-07-01 00:22:00,66.0,51.0,-100.00,ESE,120,0.0,6.0,59,0.00,,,0.00,0.000000,,2013-07-01 07:22:00,
2013-07-01 00:33:00,66.0,51.0,-100.00,ESE,120,0.0,6.0,59,0.00,,,0.00,0.000000,,2013-07-01 07:33:00,
2013-07-01 00:43:00,66.0,51.0,-100.00,ESE,120,0.0,6.0,59,0.00,,,0.00,0.000000,,2013-07-01 07:43:00,
2013-07-01 00:53:00,66.0,51.0,-100.00,ESE,120,0.0,6.0,59,0.00,,,0.00,0.000000,,2013-07-01 07:53:00,
2013-07-01 01:22:00,65.0,55.0,-100.00,SW,220,0.0,4.0,70,0.00,,,0.00,0.000000,,2013-07-01 08:22:00,
2013-07-01 01:33:00,65.0,55.0,-100.00,SW,220,0.0,4.0,70,0.00,,,0.00,0.000000,,2013-07-01 08:33:00,
2013-07-01 01:42:00,65.0,55.0,-100.00,SW,220,0.0,4.0,70,0.00,,,0.00,0.000000,,2013-07-01 08:42:00,
2013-07-01 01:52:00,65.0,55.0,-100.00,SW,220,0.0,4.0,70,0.00,,,0.00,0.000000,,2013-07-01 08:52:00,
2013-07-01 02:22:00,61.0,60.0,-100.00,West,260,0.0,6.0,96,0.01,,,-99.99,0.000000,,2013-07-01 09:22:00,
2013-07-01 02:33:00,61.0,60.0,-100.00,West,260,0.0,6.0,96,0.01,,,-99.99,0.000000,,2013-07-01 09:33:00,
2013-07-01 02:43:00,61.0,60.0,-100.00,West,260,0.0,6.0,96,0.01,,,-99.99,0.000000,,2013-07-01 09:43:00,
2013-07-01 02:53:00,61.0,60.0,-100.00,West,260,0.0,6.0,96,0.01,,,-99.99,0.000000,,2013-07-01 09:53:00,
2013-07-01 03:22:00,58.0,57.0,-100.00,West,272,0.0,5.0,96,0.00,,,0.01,0.000000,,2013-07-01 10:22:00,
2013-07-01 03:33:00,58.0,57.0,-100.00,West,272,0.0,5.0,96,0.00,,,0.01,0.000000,,2013-07-01 10:33:00,
2013-07-01 03:42:00,58.0,57.0,-100.00,West,272,0.0,5.0,96,0.00,,,0.01,0.000000,,2013-07-01 10:42:00,
2013-07-01 03:52:00,58.0,57.0,-100.00,West,272,0.0,5.0,96,0.00,,,0.01,0.000000,,2013-07-01 10:52:00,
2013-07-01 04:22:00,58.0,57.0,-100.00,WNW,287,1.0,5.0,95,0.01,,,0.02,0.000000,,2013-07-01 11:22:00,
2013-07-01 04:33:00,58.0,57.0,-100.00,WNW,287,1.0,5.0,95,0.01,,,0.02,0.000000,,2013-07-01 11:33:00,
2013-07-01 04:43:00,58.0,57.0,-100.00,WNW,287,1.0,5.0,95,0.01,,,0.02,0.000000,,2013-07-01 11:43:00,
2013-07-01 04:52:00,58.0,57.0,-100.00,WNW,287,1.0,5.0,95,0.01,,,0.02,0.000000,,2013-07-01 11:52:00,
2013-07-01 05:21:00,57.0,56.0,-100.00,WSW,242,0.0,7.0,97,0.01,,,0.03,0.000000,,2013-07-01 12:21:00,
2013-07-01 05:33:00,57.0,56.0,-100.00,WSW,242,0.0,7.0,97,0.01,,,0.03,0.000000,,2013-07-01 12:33:00,
2013-07-01 05:43:00,57.0,56.0,-100.00,WSW,242,0.0,7.0,97,0.01,,,0.03,0.000000,,2013-07-01 12:43:00,
2013-07-01 05:53:00,57.0,56.0,-100.00,WSW,242,0.0,7.0,97,0.01,,,0.03,0.000000,,2013-07-01 12:53:00,
2013-07-01 06:33:00,57.0,56.0,-100.00,West,259,0.0,5.0,97,0.00,,,0.03,2.000000,,2013-07-01 13:33:00,
2013-07-01 06:43:00,57.0,56.0,-100.00,West,259,0.0,5.0,97,0.00,,,0.03,2.000000,,2013-07-01 13:43:00,
2013-07-01 06:53:00,57.0,56.0,-100.00,West,259,0.0,5.0,97,0.00,,,0.03,2.000000,,2013-07-01 13:53:00,
2013-07-01 07:34:00,58.0,57.0,-100.00,WNW,287,0.0,6.0,98,0.01,,,0.04,51.000000,,2013-07-01 14:34:00,
2013-07-01 07:43:00,58.0,57.0,-100.00,WNW,287,0.0,6.0,98,0.01,,,0.04,51.000000,,2013-07-01 14:43:00,
2013-07-01 07:52:00,58.0,57.0,-100.00,WNW,287,0.0,6.0,98,0.01,,,0.04,51.000000,,2013-07-01 14:52:00,
2013-07-01 08:23:00,64.0,62.0,-100.00,NW,309,0.0,3.0,93,0.00,,,-99.99,70.000000,,2013-07-01 15:23:00,
2013-07-01 08:34:00,64.0,62.0,-100.00,NW,309,0.0,3.0,93,0.00,,,-99.99,70.000000,,2013-07-01 15:34:00,
2013-07-01 08:43:00,64.0,62.0,-100.00,NW,309,0.0,3.0,93,0.00,,,-99.99,70.000000,,2013-07-01 15:43:00,
2013-07-01 08:52:00,64.0,62.0,-100.00,NW,309,0.0,3.0,93,0.00,,,-99.99,70.000000,,2013-07-01 15:52:00,
2013-07-01 09:33:00,71.0,58.0,-100.00,East,101,0.0,0.0,63,0.00,,,0.04,89.000000,,2013-07-01 16:33:00,
2013-07-01 09:44:00,71.0,58.0,-100.00,East,101,0.0,0.0,63,0.00,,,0.04,89.000000,,2013-07-01 16:44:00,
2013-07-01 09:53:00,71.0,58.0,-100.00,East,101,0.0,0.0,63,0.00,,,0.04,89.000000,,2013-07-01 16:53:00,
2013-07-01 10:23:00,76.0,57.0,-100.00,East,85,0.0,5.0,52,0.00,,,0.04,274.000000,,2013-07-01 17:23:00,
2013-07-01 10:33:00,76.0,57.0,-100.00,East,85,0.0,5.0,52,0.00,,,0.04,274.000000,,2013-07-01 17:33:00,
2013-07-01 10:43:00,76.0,57.0,-100.00,East,85,0.0,5.0,52,0.00,,,0.04,274.000000,,2013-07-01 17:43:00,
2013-07-01 10:53:00,76.0,57.0,-100.00,East,85,0.0,5.0,52,0.00,,,0.04,274.000000,,2013-07-01 17:53:00,
2013-07-01 11:52:00,85.0,56.0,-100.00,South,179,0.0,5.0,37,0.00,,,-99.99,855.000000,,2013-07-01 18:52:00,
2013-07-01 12:52:00,88.0,56.0,-100.00,ENE,78,0.0,6.0,34,0.00,,,0.04,971.000000,,2013-07-01 19:52:00,
2013-07-01 13:52:00,90.0,54.0,-100.00,East,94,1.0,7.0,30,0.00,,,0.04,1038.000000,,2013-07-01 20:52:00,
2013-07-01 15:33:00,87.0,53.0,-100.00,SE,135,0.0,7.0,31,-99.99,,,0.04,689.000000,,2013-07-01 22:33:00,
2013-07-01 15:42:00,87.0,53.0,-100.00,SE,135,0.0,7.0,31,-99.99,,,0.04,689.000000,,2013-07-01 22:42:00,
2013-07-01 15:53:00,87.0,53.0,-100.00,SE,135,0.0,7.0,31,-99.99,,,0.04,689.000000,,2013-07-01 22:53:00,
2013-07-01 16:33:00,93.0,53.0,-100.00,WSW,254,0.0,5.0,26,0.00,,,0.04,806.000000,,2013-07-01 23:33:00,
2013-07-01 16:43:00,93.0,53.0,-100.00,WSW,254,0.0,5.0,26,0.00,,,0.04,806.000000,,2013-07-01 23:43:00,
2013-07-01 16:53:00,93.0,53.0,-100.00,WSW,254,0.0,5.0,26,0.00,,,0.04,806.000000,,2013-07-01 23:53:00,
2013-07-01 17:33:00,94.0,53.0,-100.00,West,276,1.0,8.0,25,-99.99,,,0.04,762.000000,,2013-07-02 00:33:00,
2013-07-01 17:43:00,94.0,53.0,-100.00,West,276,1.0,8.0,25,-99.99,,,0.04,762.000000,,2013-07-02 00:43:00,
2013-07-01 18:33:00,90.0,52.0,-100.00,West,268,2.0,11.0,28,-99.99,,,0.04,559.000000,,2013-07-02 01:33:00,
2013-07-01 18:43:00,90.0,52.0,-100.00,West,268,2.0,11.0,28,-99.99,,,0.04,559.000000,,2013-07-02 01:43:00,
2013-07-01 19:22:00,85.0,53.0,-100.00,West,263,0.0,11.0,34,-99.99,,,0.04,141.000000,,2013-07-02 02:22:00,
2013-07-01 19:33:00,85.0,53.0,-100.00,West,263,0.0,11.0,34,-99.99,,,0.04,141.000000,,2013-07-02 02:33:00,
2013-07-01 19:43:00,85.0,53.0,-100.00,West,263,0.0,11.0,34,-99.99,,,0.04,141.000000,,2013-07-02 02:43:00,
2013-07-01 19:53:00,85.0,53.0,-100.00,West,263,0.0,11.0,34,-99.99,,,0.04,141.000000,,2013-07-02 02:53:00,
2013-07-01 20:24:00,74.0,51.0,-100.00,West,276,0.0,7.0,45,-99.99,,,0.04,48.000000,,2013-07-02 03:24:00,
2013-07-01 20:32:00,74.0,51.0,-100.00,West,276,0.0,7.0,45,-99.99,,,0.04,48.000000,,2013-07-02 03:32:00,
2013-07-01 20:43:00,74.0,51.0,-100.00,West,276,0.0,7.0,45,-99.99,,,0.04,48.000000,,2013-07-02 03:43:00,
2013-07-01 20:53:00,74.0,51.0,-100.00,West,276,0.0,7.0,45,-99.99,,,0.04,48.000000,,2013-07-02 03:53:00,
2013-07-01 21:22:00,71.0,58.0,-100.00,West,260,0.0,6.0,63,0.00,,,0.04,13.000000,,2013-07-02 04:22:00,
2013-07-01 21:32:00,71.0,58.0,-100.00,West,260,0.0,6.0,63,0.00,,,0.04,13.000000,,2013-07-02 04:32:00,
2013-07-01 21:42:00,71.0,58.0,-100.00,West,260,0.0,6.0,63,0.00,,,0.04,13.000000,,2013-07-02 04:42:00,
2013-07-01 21:53:00,71.0,58.0,-100.00,West,260,0.0,6.0,63,0.00,,,0.04,13.000000,,2013-07-02 04:53:00,
2013-07-01 22:32:00,64.0,56.0,-100.00,WSW,238,0.0,3.0,74,0.00,,,0.04,0.000000,,2013-07-02 05:32:00,
2013-07-01 22:43:00,64.0,56.0,-100.00,WSW,238,0.0,3.0,74,0.00,,,0.04,0.000000,,2013-07-02 05:43:00,
2013-07-01 22:53:00,64.0,56.0,-100.00,WSW,238,0.0,3.0,74,0.00,,,0.04,0.000000,,2013-07-02 05:53:00,
2013-07-01 23:23:00,64.0,52.0,-100.00,West,275,0.0,5.0,66,0.00,,,0.04,0.000000,,2013-07-02 06:23:00,
2013-07-01 23:33:00,64.0,52.0,-100.00,West,275,0.0,5.0,66,0.00,,,0.04,0.000000,,2013-07-02 06:33:00,
2013-07-01 23:43:00,64.0,52.0,-100.00,West,275,0.0,5.0,66,0.00,,,0.04,0.000000,,2013-07-02 06:43:00,
2013-07-01 23:53:00,64.0,52.0,-100.00,West,275,0.0,5.0,66,0.00,,,0.04,0.000000,,2013-07-02 06:53:00,